Wind_Speed
4 4 5 8 6 3 2 3 5 6 8 3 4 8 13 21 15 15 16 17 19 22 25 30 30 35 36 43 44 48 43 43 40 34 32 28 30 29 29 28 24 22 20 19
5 6 10 4 3 4 3 4 10 9 5 4 6 6 5 11 21 19 20 18 21 22 16 21 28 35 35 45 46 43 46 46 44 40 40 34 32 31 30 26 21 20 21 20
6 7 3 3 3 3 4 4 7 9 6 3 2 5 3 6 8 10 9 18 19 23 23 20 18 32 37 39 43 44 46 49 48 38 33 25 28 27 27 27 26 26 21 21
5 4 5 2 6 6 5 8 11 6 2 3 3 4 5 5 12 15 20 17 20 23 20 19 21 23 34 39 39 44 46 50 47 46 41 42 38 27 33 38 31 28 25 26
9 4 5 2 7 7 10 3 7 4 3 4 3 3 7 3 5 10 19 24 22 26 24 22 22 34 39 32 38 44 47 50 50 51 50 49 39 35 35 38 32 30 30 27
9 2 5 7 5 7 5 3 5 5 4 1 6 7 6 5 8 5 6 12 18 19 22 24 33 41 25 32 37 43 47 50 54 56 52 40 33 37 35 38 36 33 30 28
5 9 4 5 3 1 4 6 3 5 4 6 2 3 8 7 8 9 11 14 12 15 18 21 22 22 31 37 45 42 45 48 57 55 41 38 35 40 39 41 39 36 33 32
2 8 6 5 7 6 2 7 5 7 5 7 2 4 6 10 10 9 11 12 14 14 12 22 26 24 37 43 44 44 45 45 48 46 40 40 37 36 39 41 41 40 41 39
1 9 5 3 3 6 3 3 4 2 2 3 4 7 9 7 8 8 9 10 10 8 7 10 9 22 33 35 41 46 43 42 39 44 42 35 34 34 38 40 40 39 41 38
4 7 6 14 4 1 5 5 0 2 3 5 5 3 5 8 9 8 10 8 8 7 9 8 10 14 27 35 39 37 37 41 47 48 41 34 35 36 36 38 40 39 40 35
1 2 7 2 2 7 1 3 4 5 5 5 2 6 7 8 8 8 8 7 6 6 7 4 6 12 27 28 31 33 35 37 42 44 38 34 36 37 37 40 41 40 37 36
3 2 4 7 6 4 3 5 5 5 5 3 4 6 3 5 8 8 10 15 16 11 8 8 7 7 14 26 30 34 36 41 41 39 36 35 35 38 39 39 39 38 39 37
5 2 3 10 7 5 4 3 4 4 3 4 4 5 5 8 10 10 11 16 19 20 13 9 6 9 16 24 29 34 35 39 36 38 33 29 34 37 40 40 38 38 39 38
4 1 6 6 5 2 6 8 2 3 2 4 6 5 7 8 11 15 14 15 15 16 18 18 10 11 17 24 29 31 31 34 35 34 33 32 33 36 41 37 37 41 40 40
4 3 2 5 7 7 9 4 8 5 8 7 7 8 2 7 9 8 7 13 15 18 18 19 17 13 16 22 26 25 26 28 32 32 33 33 30 32 37 38 40 41 41 43
1 4 2 6 7 8 6 8 11 13 12 7 6 6 3 7 7 10 9 17 17 16 16 17 22 23 13 22 28 32 31 32 34 36 34 29 31 34 38 39 39 40 42 42
4 4 1 6 6 7 9 10 11 2 7 4 2 4 8 13 16 13 11 14 16 16 18 17 15 20 27 21 27 27 37 34 33 35 31 31 32 34 41 40 41 41 41 42
5 1 2 4 3 5 4 5 3 8 6 7 4 3 4 7 15 10 8 13 17 19 19 17 12 17 27 34 22 27 26 31 34 33 33 35 38 39 40 41 38 33 36 40
8 3 2 2 3 6 4 7 5 4 2 4 4 5 6 7 9 1 10 10 12 14 15 20 22 21 20 25 32 21 21 26 29 36 40 42 41 38 34 31 33 29 30 34
3 1 3 0 3 5 2 8 12 6 4 6 2 9 11 10 9 3 11 9 10 18 22 22 23 22 18 23 26 21 22 14 24 31 41 42 45 41 38 41 39 44 40 32
4 2 5 4 5 4 5 9 11 5 5 9 3 9 7 6 5 12 11 9 13 11 16 25 25 20 19 16 12 12 14 15 17 26 28 31 44 43 40 38 34 37 36 33
2 3 2 0 2 7 5 5 3 7 12 8 7 11 14 14 14 12 10 10 12 13 15 21 18 23 25 19 13 7 6 10 18 12 19 35 36 38 34 36 34 33 36 34
4 1 2 3 5 3 3 4 6 7 4 7 10 13 15 16 16 15 12 9 12 17 17 19 20 19 26 21 18 14 13 8 16 16 19 19 31 31 36 37 35 31 35 33
3 2 1 5 5 8 16 17 9 5 14 11 16 16 15 15 14 16 15 11 10 16 16 19 18 15 16 25 21 20 23 22 24 20 18 26 25 27 28 29 30 29 30 29
4 5 3 7 12 12 10 7 14 17 11 16 16 16 15 12 14 13 13 13 11 17 21 17 16 14 16 15 20 20 19 14 12 13 10 8 23 20 24 26 29 31 34 42
3 6 3 5 8 10 18 15 15 18 19 19 17 17 15 13 14 13 12 14 15 17 22 17 19 18 20 15 9 12 13 13 7 13 3 3 6 11 17 21 19 21 30 36
Wind_Direction
3 57 242 239 196 200 257 220 265 256 258 249 254 222 199 198 195 189 191 202 210 217 216 213 219 215 208 207 208 207 203 208 206 199 189 185 192 193 191 192 189 198 187 181
19 248 239 239 194 217 238 308 295 292 330 162 303 287 227 186 206 201 194 200 214 225 218 216 214 216 207 205 205 203 202 203 199 194 193 187 190 191 192 192 194 194 191 189
171 234 102 164 296 268 250 211 257 233 336 317 26 321 206 192 200 219 233 221 218 219 214 212 205 208 209 204 197 198 197 200 199 196 196 191 192 191 188 190 190 188 192 188
230 278 224 246 257 163 276 212 232 244 141 219 79 271 300 201 229 221 223 218 224 224 223 223 216 211 212 211 198 199 198 200 199 202 202 196 195 184 198 195 190 188 189 187
244 242 270 213 234 157 239 157 208 210 160 81 334 92 266 330 265 231 227 224 224 224 222 216 213 218 215 199 198 199 199 201 200 204 209 206 192 197 196 193 186 187 190 194
242 243 173 217 261 176 254 134 43 37 101 69 238 166 270 240 225 284 265 201 225 230 227 223 214 218 198 196 195 197 194 200 203 208 211 205 196 189 185 186 185 185 187 191
333 262 231 179 263 5 87 63 332 337 349 230 286 68 243 258 244 228 268 283 246 224 228 224 214 207 196 189 192 192 191 197 204 208 206 204 203 199 189 190 187 182 188 198
188 321 182 169 184 199 191 152 154 231 229 249 3 247 245 227 267 253 250 256 275 267 218 220 217 203 196 191 190 190 194 200 201 205 206 206 205 202 200 196 193 190 193 197
141 265 310 241 225 128 276 208 193 162 55 68 226 294 300 279 290 309 316 351 332 285 263 243 233 205 196 190 191 190 195 202 199 204 205 209 207 204 205 200 202 199 199 199
271 294 246 277 116 192 165 173 352 16 262 267 283 264 233 292 291 301 319 332 318 321 326 304 161 165 185 189 192 195 196 198 200 207 210 210 206 211 208 207 203 204 202 201
11 162 290 352 197 220 284 256 63 122 149 191 223 264 223 246 260 253 277 287 258 268 255 255 310 190 188 190 189 193 196 201 204 208 208 207 207 210 211 212 207 207 205 202
319 181 278 243 269 260 233 233 160 138 251 216 165 259 262 297 308 324 325 326 328 303 235 208 192 186 199 190 190 197 200 202 205 204 204 208 210 211 213 211 207 205 205 202
327 322 354 333 341 8 45 5 102 113 70 223 169 254 317 30 7 358 347 350 340 339 322 302 179 200 200 202 201 199 203 206 202 204 201 199 206 209 209 208 208 207 205 202
155 140 174 202 249 353 302 317 293 143 151 229 223 262 297 351 346 335 350 354 346 350 356 345 283 247 206 208 207 208 210 203 199 195 199 199 201 202 206 207 208 207 205 201
73 290 244 249 264 282 276 298 319 254 228 200 253 242 0 330 315 312 346 346 353 360 355 352 338 282 245 214 213 215 213 200 196 195 197 201 196 198 204 207 207 206 204 203
309 267 266 266 267 262 259 294 276 273 270 252 259 257 13 303 311 339 3 354 352 353 344 351 354 345 270 243 219 211 210 201 195 193 197 194 190 192 198 199 198 199 200 203
210 201 225 259 223 307 285 228 237 293 41 331 350 343 344 345 341 338 6 355 344 341 338 339 347 347 335 273 243 244 209 202 197 197 191 190 188 189 194 195 193 196 198 198
256 109 183 261 243 237 257 48 47 103 53 20 4 358 331 304 300 309 26 357 342 335 331 328 330 346 351 342 301 244 244 207 194 195 188 185 186 193 191 187 185 189 190 193
197 126 270 255 240 294 3 15 358 359 81 7 334 339 323 308 292 164 18 355 331 326 322 317 321 319 335 348 348 331 232 222 212 194 192 189 189 186 179 182 173 183 190 190
100 104 151 250 262 253 1 337 320 299 234 355 333 329 329 338 350 310 334 330 327 329 332 328 326 322 334 354 351 356 10 257 229 231 204 192 188 186 179 177 174 195 195 184
322 307 214 214 243 283 323 7 321 222 306 325 298 314 305 311 261 294 303 299 308 303 325 338 338 329 318 330 331 6 18 12 329 265 237 217 182 176 180 176 176 173 169 170
288 308 278 58 273 277 11 21 64 285 308 307 340 326 317 308 306 299 291 292 298 300 313 330 336 328 326 338 352 5 340 349 8 290 284 214 202 164 165 162 160 162 158 154
281 125 266 210 242 271 82 214 245 273 255 299 304 299 298 296 292 290 290 278 280 290 293 305 318 329 326 341 3 353 1 351 15 7 238 255 179 145 159 158 153 154 154 154
302 53 247 2 272 308 308 305 293 275 298 293 298 289 285 279 284 288 288 286 275 284 289 289 298 318 327 337 354 359 359 12 31 28 324 172 147 139 149 149 154 158 158 157
218 354 262 269 289 295 276 289 297 297 282 289 283 278 276 277 284 279 279 280 278 280 286 280 279 286 295 329 345 2 9 20 52 62 2 43 113 140 145 156 165 171 177 172
201 212 175 248 277 278 286 291 284 290 287 287 288 288 270 268 279 286 280 275 274 275 281 272 271 277 279 290 306 336 2 23 9 85 152 99 142 151 152 147 150 180 183 180
Height
776 792 804 795 794 789 790 797 800 785 766 765 771 772 767 755 760 765 765 768 768 764 756 764 768 770 774 775 778 781 788 792 798 804 809 811 810 813 817 820 824 825 827 831
791 801 782 779 782 787 788 794 795 776 762 764 767 768 759 762 756 756 755 760 761 758 761 761 762 765 766 767 770 777 781 787 792 797 799 801 805 811 815 818 823 825 827 826
796 782 770 776 780 787 789 792 791 789 769 764 768 780 765 756 755 757 758 750 750 750 749 749 753 752 756 759 762 771 775 779 786 795 799 801 804 806 812 813 816 820 824 825
783 769 772 778 785 785 799 774 773 778 784 801 770 814 778 767 763 754 747 749 744 740 742 744 743 747 747 749 759 763 768 771 779 783 785 783 789 795 795 800 809 814 817 821
782 769 773 779 775 772 781 762 771 770 786 791 789 810 789 765 764 759 745 735 732 728 730 732 735 733 732 748 752 754 758 763 768 768 772 773 774 782 788 798 805 809 814 818
770 755 760 764 755 760 754 765 781 794 803 821 797 802 802 773 756 745 732 733 729 726 722 719 719 721 735 740 744 746 747 754 758 760 765 769 773 774 780 794 799 804 812 815
773 766 754 749 763 757 768 793 823 821 826 827 791 805 793 753 744 739 731 719 713 711 709 708 711 716 721 726 727 735 739 742 748 753 760 764 770 773 775 787 795 802 804 813
794 797 757 745 756 765 766 785 820 830 836 818 793 805 777 744 733 728 725 717 707 701 700 694 692 697 702 707 715 722 729 733 741 748 753 757 764 769 774 778 788 794 796 805
796 789 751 745 743 750 765 783 772 795 804 818 802 782 756 738 735 724 718 708 707 702 695 693 689 692 694 702 707 710 721 728 737 741 747 751 758 764 769 774 782 788 793 799
776 795 758 740 737 743 753 757 785 808 807 813 805 789 781 749 738 726 722 712 706 700 698 693 681 687 696 699 704 713 718 721 725 732 739 743 752 759 764 771 776 783 789 795
768 787 776 755 758 764 764 772 780 790 803 812 818 801 756 744 733 728 720 709 699 695 695 695 694 690 692 700 705 710 715 718 723 728 734 738 746 753 759 764 771 778 786 790
778 790 794 773 750 746 749 758 771 797 792 802 802 797 735 738 740 737 732 720 711 702 688 690 692 694 698 696 701 705 708 709 716 721 727 732 739 746 752 759 765 771 780 785
784 796 808 792 769 754 760 755 766 782 791 790 797 788 731 740 743 740 737 729 721 712 705 700 692 692 691 693 695 697 701 704 708 716 721 728 734 739 746 754 759 766 773 779
784 796 798 811 791 783 780 770 762 773 795 784 782 765 748 749 754 743 738 737 731 725 721 713 703 695 686 688 689 693 696 700 705 711 717 720 726 732 738 746 753 759 765 771
794 804 792 789 785 780 776 773 773 773 769 777 759 762 755 761 757 749 743 740 733 725 723 717 709 699 695 684 685 689 693 696 700 705 710 713 721 729 735 740 748 754 761 767
795 803 792 794 779 776 779 775 768 759 751 757 753 755 762 758 753 748 749 743 737 731 725 716 707 701 692 690 678 677 683 687 693 694 700 711 715 722 729 735 741 749 756 762
797 800 799 796 778 779 784 767 754 750 757 758 764 768 763 756 753 749 752 748 741 734 727 719 713 705 697 686 684 687 670 678 684 689 696 703 709 717 720 725 731 740 746 752
793 794 801 807 787 803 761 751 749 763 767 765 764 765 765 765 755 750 749 747 741 733 728 723 716 707 699 689 681 680 688 678 674 682 687 693 699 706 706 709 718 734 739 744
789 797 804 806 806 782 765 768 770 769 774 769 768 765 763 760 753 745 746 747 745 738 729 722 716 709 699 693 684 677 675 681 680 669 672 676 685 690 698 701 712 728 741 742
786 790 799 805 803 797 779 769 763 760 774 767 766 763 760 755 757 751 745 743 740 735 728 720 714 707 699 689 684 679 678 676 677 682 662 664 670 677 685 695 694 702 728 736
799 797 801 804 802 785 777 772 758 773 776 766 763 762 759 758 755 746 743 739 734 731 726 716 708 706 700 691 684 680 679 677 677 678 681 683 657 663 677 685 695 704 715 730
806 804 801 801 801 792 776 775 785 784 771 766 764 761 756 750 744 742 739 735 730 725 720 716 707 702 696 691 684 677 677 672 668 666 674 671 657 650 671 681 691 706 710 724
811 807 816 808 799 778 780 781 780 777 772 769 765 760 755 748 742 737 733 731 727 722 718 713 709 700 696 690 683 676 665 664 656 655 658 661 628 637 665 679 688 702 707 716
804 808 812 806 784 785 778 775 774 772 770 765 761 756 750 745 739 734 730 726 722 717 713 710 705 698 694 688 681 675 666 655 646 646 664 645 646 659 672 679 689 701 705 712
813 810 806 806 794 786 777 775 771 767 764 760 754 749 744 740 734 730 726 722 717 712 707 704 701 697 693 685 681 673 668 665 659 663 668 642 651 672 677 683 692 699 704 700
808 807 811 807 790 789 776 770 766 763 757 751 747 741 736 733 728 724 720 716 713 708 702 700 695 692 689 685 676 673 671 668 672 660 673 674 680 684 686 687 696 706 702 704